Showing default

YAOGAN-39 04C, 58145

Orbit data source: Space-Track

YAOGAN-39 04C, 58145 is a payload satellite owned by PLA GAD (CN) in LEO that was launched on Mon, 23 Oct 2023 UTC via a CHANG ZHENG 2D launch vehicle from the Xichang Space Center, China (XSC). Payload-class satellites include a variety of spacecraft equipped with specific instruments for various scientific and technological missions. These include communications satellites like Starlink; space stations such as the ISS; scientific satellites like the Hubble; Earth observation satellites from companies like Planet Labs, Umbra, and HawkEye 360; GPS; miniature CubeSats for education and research; and military/defense satellites.

Loading next visibility...
Identifier
58145, 2023-163E
Orbit
LEO
Last TLE update
9 hours ago
Origin
Manufacturer
DFH
Mission
Operational Defense Sigint
Bus & Motor
Unknown
Mass
~300 kg wet, ~300 kg dry
Launch date (UTC)
2023-10-23 (2 years ago)
Launch vehicle
CHANG ZHENG 2D
Launch site
Xichang Space Center, China (XSC)
Object type
Payload
Rocket body
Debris
Shape & HBR
Box + 2 Pan, 5 m
Radar Cross Section
11.063 m², Large (>1 m²)

Expand to show TLE details & history

TLE from 9 hours ago
0 YAOGAN-39 04C
1 58145U 23163E   25182.01064471  .00004180  00000-0  21068-3 0  9992
2 58145  34.9939  37.8993 0004628 238.7227 121.3032 15.16600595 93958
Epoch: 2025-07-01T00:15Z
TLE epoch observation values (Epoch: 2025-07-01T00:15:19.702Z)
Latitude
-0.00006°
Longitude
114.75488°
Altitude
516.692 km
Speed
7.607 km/s
True Right ascension
02h 31m 35s
True Declination
0° 00' 00"
Sunlit
Object was in daylight at epoch
Visualization orbit readout
Latitude
21.0713°
Longitude
-100.6412°
Altitude
515.271 km
Speed
7.61 km/s
Apparent Right ascension
10h 33m 57s
Apparent Declination
-9° 06' 44"
Sunlit
Object is in daylight
Visualization observer readout
Local Sidereal Time
20:24:41
Azimuth
308.107° NW
Elevation
-47.871°
Doppler factor
1
Orbital elements
Apogee altitude
522.558 km
Perigee altitude
516.173 km
Semi-major axis
6,897.503 km
Eccentricity
0.00046
Inclination
34.9939°
RAAN
37.8993°
Arg. of periapsis
238.7227°
True anomaly
Unknown
Mean anomaly
121.3032°
Eccentric anomaly
Unknown
Mean motion
3.78883 °/min
Orbital period
95.02 mins
BSTAR
0.00021068
Loading maneuver chart data...
Loading SW <> Apogee altitude chart data...
Loading historical data...
Loading historical data...
Loading historical data...
Loading historical data...
Loading historical data...
Loading historical data...
Loading historical data...
Other satellites on launch #163 in the year 2023 (2023-10-23 UTC)

YAOGAN-39 04C Visibility forecast

Observer location: undefined°, undefined°

Span
Click to sort rows by Start time (UTC) header in descending order
Start Az.
Max El. time (UTC)
Max El. Az.
Max El.
End time (UTC)
End Az.
4 mins2025-07-01 17:51:31.429Z195.215° SSW2025-07-01 17:53:31.429Z163.702° S16.124°2025-07-01 17:55:31.429Z128.04° SE
5 mins2025-07-01 19:31:31.429Z224.437° SW2025-07-01 19:33:31.429Z175.071° S30.033°2025-07-01 19:36:31.429Z109.851° ESE
5 mins2025-07-01 21:11:31.429Z240.588° WSW2025-07-01 21:13:31.429Z188° SSW31.203°2025-07-01 21:16:31.429Z123.229° SE
4 mins2025-07-01 22:51:31.429Z235.105° WSW2025-07-01 22:53:31.429Z197.523° SSW18.322°2025-07-01 22:55:31.429Z162.552° S
|